Weather observations for the past three days for
Youngstown, Youngstown-Warren Regional Airport
Imperial (Metric)
Date Time (edt) Wind (mph) Vis. (mi.) Weather Sky Cond. Temperature (ºF) Relative Humidity Wind Chill (°F) Heat Index (°F) Pressure Precipitation (in)
Air Dwpt 6 hour altimeter (in) sea level (mb) 1 hr 3 hr 6 hr
Max. Min.
24 08:51 N 7 10.00 A Few Clouds FEW024 FEW120 69.1 57.9 68% 29.93 1012.9
24 07:51 N 13 10.00 A Few Clouds FEW018 FEW110 64.9 57.9 66 61 78% 29.92 1012.4
24 06:51 NW 6 10.00 A Few Clouds FEW026 FEW100 62.1 59 90% 29.89 1011.5
24 05:51 W 6 10.00 A Few Clouds FEW025 FEW100 61 57.9 90% 29.86 1010.4
24 04:51 NW 5 10.00 A Few Clouds FEW018 FEW065 62.1 57.9 86% 29.83 1009.4
24 03:51 NW 5 10.00 A Few Clouds FEW065 FEW110 63 59 87% 29.81 1008.9
24 02:51 W 7 10.00 Mostly Cloudy FEW055 BKN100 64 59 84% 29.81 1008.5
24 01:51 NW 5 10.00 Mostly Cloudy FEW030 BKN055 66 59 75 64.9 78% 29.8 1008.1
24 00:51 N 12 10.00 Mostly Cloudy FEW017 BKN022 BKN060 68 60.1 76% 29.79 1007.9
23 23:51 NW 7 10.00 Overcast SCT026 BKN042 OVC065 68 62.1 81% 29.78 1007.6
23 22:51 NW 8 10.00 Overcast BKN025 OVC065 70 63 79% 29.75 1006.6
23 21:51 NW 7 10.00 Mostly Cloudy FEW035 BKN060 71.1 63 76% 29.74 1006.1
23 20:51 NW 8 10.00 Mostly Cloudy FEW025 BKN050 BKN250 72 64 76% 29.72 1005.3
23 19:51 NW 15 G 26 10.00 Mostly Cloudy FEW028 BKN046 BKN055 75 66 80.1 73 74% 76 29.71 1004.9 0.12
23 18:51 W 12 G 21 10.00 Mostly Cloudy SCT022 BKN045 BKN090 75.9 68 77% 77 29.7 1004.5
23 17:51 W 10 10.00 Mostly Cloudy FEW010 SCT025 BKN075 BKN250 77 71.1 82% 79 29.68 1004.0 0.02
23 16:51 W 15 G 23 5.00 Thunderstorm Light Rain FEW010 BKN025CB BKN095 75 71.1 88% 75 29.68 1004.1 0.09 0.1
23 15:51 SW 16 G 25 10.00 Mostly Cloudy SCT014 BKN025 BKN050 79 73 82% 82 29.68 1003.7 0.01
23 14:51 W 9 10.00 Light Rain OVC025 75 70 84% 75 29.69 1004.5
23 13:51 SW 13 G 30 10.00 Overcast BKN030 OVC055 79 68 81 75.9 69% 81 29.7 1004.6
23 12:51 SW 15 G 26 10.00 Mostly Cloudy SCT024 BKN060 BKN075 BKN180 80.1 69.1 69% 83 29.71 1004.7
23 11:51 SW 20 G 29 10.00 Mostly Cloudy SCT022 BKN044 BKN150 79 69.1 72% 82 29.72 1005.1
23 10:51 SW 15 G 23 10.00 Overcast FEW030 SCT060 BKN100 OVC220 77 68 74% 79 29.73 1005.7
23 09:51 SW 13 10.00 Light Rain BKN030 BKN100 OVC130 78.1 69.1 74% 80 29.73 1005.5
23 08:51 SW 15 G 22 10.00 Overcast FEW025 FEW042 BKN160 OVC220 80.1 68 67% 83 29.73 1005.4
23 07:51 SW 10 10.00 Overcast FEW050 SCT100 BKN170 OVC220 78.1 68 80.1 78.1 71% 80 29.74 1005.8
23 06:51 S 12 10.00 Overcast FEW055 BKN150 OVC200 78.1 68 71% 80 29.75 1006.3
23 05:51 SW 12 10.00 Overcast SCT150 OVC200 79 68 69% 81 29.77 1006.6
23 04:51 SW 10 G 20 10.00 Overcast FEW060 SCT150 OVC200 79 68 69% 81 29.77 1006.7
23 03:51 SW 8 10.00 Overcast FEW060 OVC230 79 68 69% 81 29.8 1007.7
23 02:51 SW 9 10.00 Overcast FEW060 OVC230 80.1 68 67% 83 29.81 1008.3
23 01:51 SW 9 10.00 Overcast SCT060 OVC240 80.1 68 84.9 79 67% 83 29.84 1009.2
23 00:51 SW 8 10.00 Overcast OVC240 81 68 65% 84 29.86 1009.8
22 23:51 S 6 10.00 Mostly Cloudy BKN240 80.1 68 67% 83 29.87 1010.2
22 22:51 S 7 10.00 Mostly Cloudy BKN230 81 66.9 62% 83 29.88 1010.6
22 21:51 S 6 10.00 Mostly Cloudy FEW190 BKN250 82 66 58% 84 29.88 1010.7
22 20:51 SW 8 10.00 Mostly Cloudy SCT190 BKN250 84 66 55% 86 29.9 1011.3
22 19:51 SW 7 10.00 Mostly Cloudy FEW100 SCT180 BKN250 84.9 66.9 91.9 84.9 55% 88 29.91 1011.8
22 18:51 SW 6 10.00 Mostly Cloudy FEW065 SCT095 SCT170 BKN250 88 68 52% 92 29.92 1012.1
22 17:51 SW 10 10.00 Mostly Cloudy SCT065 SCT160 BKN250 91 68 47% 95 29.93 1012.5
22 16:51 SW 13 G 20 10.00 Mostly Cloudy FEW060 SCT150 BKN250 91.9 66.9 44% 95 29.95 1013.1
22 15:51 W 7 10.00 Mostly Cloudy SCT055 SCT170 BKN250 91 69.1 49% 96 29.97 1013.9
22 14:51 W 10 10.00 Mostly Cloudy SCT055 SCT180 BKN250 91.9 68 46% 96 29.99 1014.5
22 13:51 W 12 10.00 Mostly Cloudy SCT060 SCT085 SCT150 BKN250 90 66 91.9 75 45% 93 30.01 1015.1
22 12:51 W 13 10.00 Mostly Cloudy SCT050 SCT065 SCT140 BKN250 91 66.9 45% 94 30.04 1016.0
22 11:51 W 9 10.00 Mostly Cloudy SCT043 SCT080 SCT190 BKN250 88 69.1 54% 92 30.05 1016.6
22 10:51 SW 7 10.00 Partly Cloudy FEW030 SCT070 SCT250 86 71.1 61% 92 30.07 1017.1
22 09:51 SW 6 10.00 Partly Cloudy FEW026 SCT065 SCT160 SCT250 82.9 71.1 67% 88 30.07 1017.3
22 08:51 SW 6 10.00 Partly Cloudy FEW075 SCT250 80.1 70 71% 83 30.09 1017.8
22 07:51 S 3 10.00 A Few Clouds FEW250 75 70 75 66 84% 75 30.09 1018.0
22 06:51 E 5 7.00 A Few Clouds FEW065 FEW250 70 68 93% 30.1 1018.2
22 05:51 E 6 8.00 Shallow Fog FEW080 FEW250 66 64.9 96% 30.1 1018.3
22 04:51 E 5 8.00 A Few Clouds FEW080 FEW250 66 64.9 96% 30.1 1018.3
22 03:51 SE 3 10.00 A Few Clouds FEW080 FEW250 66.9 66 97% 30.1 1018.4
22 02:51 E 3 10.00 A Few Clouds FEW090 FEW250 68 66 93% 30.1 1018.5
22 01:51 S 5 10.00 Partly Cloudy FEW090 SCT250 73 68 82.9 69.1 84% 30.11 1018.4
22 00:51 SE 3 10.00 Partly Cloudy SCT250 71.1 68 90% 30.13 1019.1
21 23:51 Calm 10.00 Partly Cloudy SCT250 72 69.1 91% 30.14 1019.5
21 22:51 Calm 10.00 Partly Cloudy FEW075 SCT250 73 69.1 87% 30.14 1019.7
21 21:51 Calm 10.00 Mostly Cloudy BKN250 73.9 69.1 85% 30.14 1019.5
21 20:51 Calm 10.00 Partly Cloudy FEW180 SCT250 79 71.1 77% 82 30.15 1019.7
21 19:51 SE 7 10.00 Partly Cloudy FEW070 SCT180 SCT250 82.9 71.1 91.9 81 67% 88 30.15 1019.8
21 18:51 E 6 10.00 Mostly Cloudy FEW060 SCT170 BKN250 84.9 70 61% 89 30.14 1019.8
21 17:51 N 8 10.00 A Few Clouds FEW060CB FEW250 89.1 70 53% 94 30.14 1019.6
21 16:51 N 10 10.00 Partly Cloudy FEW055CB SCT250 89.1 72 57% 96 30.15 1019.9
21 15:51 N 7 10.00 Mostly Cloudy SCT055CB BKN250 89.1 71.1 55% 95 30.17 1020.5
21 14:51 N 15 G 23 10.00 Thunderstorm BKN047CB BKN250 81 68 65% 84 30.19 1021.7
21 13:51 W 9 10.00 Partly Cloudy SCT047 91 71.1 91.9 75.9 52% 98 30.2 1021.7
21 12:51 S 3 10.00 A Few Clouds FEW044 89.1 69.1 52% 94 30.22 1022.5
21 11:51 SW 6 10.00 A Few Clouds FEW038 FEW100 88 69.1 54% 92 30.23 1022.7
21 10:51 S 7 10.00 A Few Clouds FEW090 86 70 59% 91 30.24 1023.1
21 09:51 SW 6 10.00 Fair CLR 84 71.1 65% 89 30.25 1023.4
Date Time (edt) Wind (mph) Vis. (mi.) Weather Sky Cond. Air Dwpt Max. Min. Relative Humidity Wind Chill (°F) Heat Index (°F) altimeter (in) sea level (mb) 1 hr 3 hr 6 hr
6 hour
Temperature (ºF) Pressure Precipitation (in)